Regional Weather Roundup
Issued by NWS

Home | Current Version | Previous Version | Text Only | Print | Product List | Glossary Off
Versions: 1 2 3 4 5 6 7 8 9 10 11 12 13 14 15 16 17 18 19 20 21 22 23 24 25 26 27 28 29 30 31 32 33 34 35 36 37 38 39 40 41 42 43 44 45 46 47 48 49 50

000
ASUS43 KDTX 192001
RWRMI
MICHIGAN HOURLY REGIONAL WEATHER ROUNDUP
NATIONAL WEATHER SERVICE DETROIT/PONTIAC MI
300 PM EST MON FEB 19 2018

NOTE: "FAIR" INDICATES FEW OR NO CLOUDS BELOW 12,000 FEET WITH NO
SIGNIFICANT WEATHER AND/OR OBSTRUCTION TO VISIBILITY.

MIZ047>049-052>055-059>063-066>070-074>076-081>083-192100-
SOUTHEAST LOWER MICHIGAN

CITY           SKY/WX    TMP DP  RH WIND       PRES   REMARKS
ADRIAN         LGT RAIN  47  47 100 SW14      29.90F VSB 1/4
ALMA           FOG       39  39 100 E5        29.89F VSB 1/2
ANN ARBOR      LGT RAIN  40  40 100 CALM      29.90F VSB 1/2
BAD AXE        LGT RAIN  37  35  90 CALM      29.94S
CARO           MIX PCPN  40  39  95 SE3       29.92R
DETROIT CITY   RAIN      43  41  93 SE7       29.92F FOG
DETROIT        RAIN      44  44 100 SE6       29.92F VSB 3/4
FLINT          RAIN      39  38  96 E6        29.90F VSB 3/4 WCI  35
GROSSE ILE     LGT RAIN  42  42  99 S8        29.91F VSB 1/2
HILLSDALE      RAIN      46  46 100 S10       29.87F
HOWELL         LGT RAIN  41  41 100 SE6       29.87F

CITY           SKY/WX    TMP DP  RH WIND       PRES   REMARKS
JACKSON        LGT RAIN  48  47  96 S10       29.86F FOG
LAMBERTVILLE   RAIN      55  54  97 S12G22    29.92S
LANSING        LGT RAIN  41  41 100 E7        29.87F FOG
LAPEER         DRIZZLE   40  40  98 CALM      29.92F
MASON          LGT RAIN  43  39  88 SE5       29.86F
MONROE         RAIN      49  48  93 S12       29.91F
MT. CLEMENS    LGT RAIN  37  37 100 E5        29.91F VSB 1   WCI  33
PONTIAC        LGT RAIN  39  39 100 VRB5      29.89F FOG
PORT HOPE        N/A     36  33  89 CALM      29.93F
PORT HURON     LGT RAIN  39  37  93 CALM      29.95F VSB 1/4
TRI CITIES     LGT RAIN  40  38  93 E6        29.91F VSB 3/4
MIDLAND        HVY RAIN  39  38  95 E3        29.91R
TROY           MIX PCPN  42  41  96 CALM      29.93F VSB 1
SAGINAW HB     CLOUDY    37  37 100 SE3       29.91F FOG
$$
MIZ043>046-050>051-056>058-064>065-071>073-077>080-192100-
SOUTHWEST LOWER MICHIGAN

CITY           SKY/WX    TMP DP  RH WIND       PRES   REMARKS
BATTLE CREEK   LGT RAIN  46  46 100 S12       29.83F VSB 3/4
BENTON HARBOR  CLOUDY    49  48  97 S9        29.80S FOG
BIG RAPIDS     CLOUDY    39  35  85 E8        29.86S FOG     WCI  33
COLDWATER      LGT RAIN  51  51 100 S7G18     29.85F
HOLLAND        LGT RAIN  43  41  93 E6        29.82F FOG
GRAND RAPIDS   LGT RAIN  41  40  96 E9        29.83F FOG
IONIA          RAIN      39  39 100 E5        29.85F VSB 1
KALAMAZOO      LGT RAIN  44  44 100 S8        29.84F VSB 1/4
LUDINGTON      DRIZZLE   40  39  95 E3        29.85F
MARSHALL       LGT RAIN  47  47  98 S9        29.84F
MOUNT PLEASANT LGT RAIN  40  38  95 E5        29.89S VSB 1
MUSKEGON       DRZL/FOG  41  38  89 E8        29.83F VSB 3/4
SOUTH HAVEN    DRIZZLE   47  46  95 SE3       29.80F
$$
MIZ016>042-192100-
NORTHERN LOWER MICHIGAN

CITY           SKY/WX    TMP DP  RH WIND       PRES   REMARKS
ALPENA         CLOUDY    40  31  70 N5        29.94F
BEAVER ISLAND  CLOUDY    36  29  78 NE8       29.95F WCI  29
BELLAIRE       CLOUDY    41  33  74 CALM      29.92S
CADILLAC       CLOUDY    38  33  80 NE6       29.86R WCI  34
CHARLEVOIX     CLOUDY    35  31  85 N7        29.96S WCI  29
FRANKFORT      RAIN      39  33  80 NE3       29.88F
GAYLORD        LGT RAIN  38  31  76 NE7       29.89F WCI  33
GRAYLING       RAIN      38  33  82 NE6       29.87F WCI  33
HARBOR SPRINGS CLOUDY    38  30  72 E7        29.94R WCI  33
HOUGHTON LAKE  CLOUDY    40  31  70 E7        29.88F
MANISTEE       CLOUDY    41  33  73 NE6       29.86S
OSCODA         CLOUDY    41  32  70 N6        29.90F
PELLSTON       CLOUDY    38  31  76 E9        29.95F WCI  31
ROGERS CITY    CLOUDY    34  29  83 NE7       29.96F WCI  28
TRAVERSE CITY  LGTSLEET  39  32  76 NE8       29.88F WCI  33
$$
MIZ007>008-015-192100-
EASTERN UPPER MICHIGAN

CITY           SKY/WX    TMP DP  RH WIND       PRES   REMARKS
KINROSS        CLOUDY    35  28  75 NE6       29.97F WCI  30
MACKINAC ISLAN CLOUDY    34  29  81 E3        29.96S
NEWBERRY       LGT SNOW  30  29  96 N5        29.97S WCI  25
S. S. MARIE    CLOUDY    38  29  70 NE5       29.96F WCI  34
MUNISING         N/A     25  23  92 NE20      30.03R WCI  11
$$
MIZ004>006-011>014-085-192100-
CENTRAL UPPER MICHIGAN

CITY           SKY/WX    TMP DP  RH WIND       PRES   REMARKS
MANISTIQUE     CLOUDY    30  29  94 N16       29.96F WCI  19
ESCANABA       FLURRIES  27  22  81 N15G21    29.97F WCI  15
MENOMINEE      LGT SNOW  28  23  81 N10G18    29.94F WCI  19
SAWYER-GWINN   LGT SNOW  21  19  93 N20       29.99S WCI   6
$$
MIZ001>003-009>011-084-192100-
WESTERN UPPER MICHIGAN

CITY           SKY/WX    TMP DP  RH WIND       PRES   REMARKS
IRON MOUNTAIN  FLURRIES  22  17  81 N9        29.95F WCI  12
HOUGHTON       SNOW      18  11  74 NE10      30.06S VSB 1/2 WCI   6
COPPER HARBOR    N/A     17  13  84 E16G28    30.12S WCI   2
IRONWOOD       LGT SNOW  16  11  80 NE10      30.02F WCI   4
$$

ABBREVIATIONS USED IN REMARKS
   TC - TEMPERATURE IN CELSIUS
  WCI - WIND CHILL INDEX
   HX - HEAT INDEX
  VSB - VISIBILITY





USA.gov is the U.S. government's official web portal to all federal, state and local government web resources and services.